Location: Ethel Rock
(53.4667°N, 4.5667°W)
Time: 01:03:50
(UTC+00:00)

ALOS - Pass Details

Date: 24 October 2020
Orbit: 683 x 685 km, 97.9° (Epoch: 26 November)

Event Time Altitude Azimuth Distance (km) Brightness Sun altitude
Rises 05:50:43 0° 10° (N) 3,064 5.7 -11.3°
Reaches altitude 10° 05:53:02 10° 5° (N) 2,143 4.8 -10.9°
Maximum altitude 05:57:29 45° 293° (WNW) 938 2.6 -10.3°
Drops below altitude 10° 06:01:55 10° 222° (SW) 2,128 4.5 -9.6°
Sets 06:04:13 0° 216° (SW) 3,040 5.3 -9.3°
